FW8606 Weather Reports


time (UTC)temp
F
wind
direction
speed
knots
gust
knots
rain 1hr
in
rain 24hr
in
rain mn
in
humidity
%
barometer
mb
20260504081904 59 309 0.0 0.0 0.00 0.00 0.00 61 1011.7
20260504081400 59 290 0.0 0.0 0.00 0.00 0.00 61 1011.7
20260504080856 59 268 0.9 2.6 0.00 0.00 0.00 61 1011.7
20260504080354 59 290 0.0 0.9 0.00 0.00 0.00 62 1011.7
20260504070321 58 301 0.0 0.0 0.00 0.00 0.00 62 1012.0
20260504060241 57 276 2.6 4.3 0.00 0.00 0.00 62 1012.7
20260504050709 53 341 0.0 0.0 0.00 0.00 0.00 72 1013.0
20260504050206 53 342 0.0 0.0 0.00 0.00 0.00 72 1013.8
20260504045703 53 355 0.0 0.9 0.00 0.00 0.00 73 1013.5
20260504045203 53 345 0.0 0.0 0.00 0.00 0.00 73 1013.8
20260504044702 53 342 0.0 0.0 0.00 0.00 0.00 72 1013.8
20260504044159 53 342 0.0 0.0 0.00 0.00 0.00 72 1013.8
20260504043655 53 346 0.0 0.0 0.00 0.00 0.00 71 1013.5
20260504043152 53 0 0.0 0.9 0.00 0.00 0.00 72 1013.5
20260504042650 53 341 0.0 0.0 0.00 0.00 0.00 73 1013.8
20260504042146 53 340 0.0 0.0 0.00 0.00 0.00 73 1013.8
20260504041642 53 340 0.0 0.0 0.00 0.00 0.00 73 1013.5
20260504041138 53 340 0.0 0.0 0.00 0.00 0.00 74 1013.8
20260504040636 53 338 0.0 0.0 0.00 0.00 0.00 75 1014.2
20260504040133 53 330 0.0 0.9 0.00 0.00 0.00 75 1013.8
20260504035629 53 340 0.0 0.0 0.00 0.00 0.00 75 1014.2
20260504035126 53 341 0.0 0.0 0.00 0.00 0.00 74 1014.2
20260504034624 53 342 0.0 0.0 0.00 0.00 0.00 75 1014.2
20260504034120 53 340 0.0 0.0 0.00 0.00 0.00 75 1014.2
20260504033618 53 339 0.0 0.0 0.00 0.00 0.00 75 1014.2
20260504033115 52 345 0.0 0.0 0.00 0.00 0.00 75 1014.2
20260504032612 53 345 0.0 0.0 0.00 0.00 0.00 75 1014.5
20260504032109 53 345 0.0 0.0 0.00 0.00 0.00 73 1014.2
20260504031606 53 345 0.0 0.0 0.00 0.00 0.00 73 1014.5
20260504031102 54 347 0.0 0.0 0.00 0.00 0.00 71 1014.5
20260504030559 54 4 0.9 0.9 0.00 0.00 0.00 70 1014.2
20260504030056 54 343 0.0 0.0 0.00 0.00 0.00 69 1014.2
20260504025553 55 348 0.0 0.0 0.00 0.00 0.00 68 1014.5
20260504025050 54 342 0.0 0.0 0.00 0.00 0.00 69 1014.5
20260504024547 54 10 0.9 2.6 0.00 0.00 0.00 70 1014.5
20260504024043 54 333 0.0 0.0 0.00 0.00 0.00 70 1014.5
20260504023540 54 321 0.0 0.0 0.00 0.00 0.00 73 1014.5
20260504023036 54 321 0.0 0.0 0.00 0.00 0.00 70 1014.5
20260504022532 55 321 0.0 0.0 0.00 0.00 0.00 69 1014.5
20260504022029 55 322 0.0 0.0 0.00 0.00 0.00 68 1014.5
20260504021526 55 321 0.0 0.0 0.00 0.00 0.00 66 1014.5
20260504021023 55 321 0.0 0.0 0.00 0.00 0.00 68 1014.5
20260504020520 56 322 0.0 0.0 0.00 0.00 0.00 70 1014.8
20260504020016 55 322 0.0 0.0 0.00 0.00 0.00 66 1014.5
20260504015513 56 322 0.0 0.0 0.00 0.00 0.00 63 1014.5
20260504015009 56 322 0.0 0.0 0.00 0.00 0.00 61 1014.5
20260504014505 57 322 0.0 0.0 0.00 0.00 0.00 58 1014.5
20260504014002 57 322 0.0 0.0 0.00 0.00 0.00 57 1014.2
20260504013500 58 321 0.0 0.0 0.00 0.00 0.00 57 1014.2
20260504012955 58 322 0.0 0.0 0.00 0.00 0.00 55 1014.2
20260504012454 59 322 0.0 0.0 0.00 0.00 0.00 55 1013.8
20260504011952 59 322 0.0 0.0 0.00 0.00 0.00 55 1013.8
20260504011448 59 322 0.0 0.0 0.00 0.00 0.00 54 1013.8
20260504010944 60 322 0.0 0.0 0.00 0.00 0.00 53 1013.8
20260504010440 60 317 0.0 0.0 0.00 0.00 0.00 53 1013.8
20260504005936 61 316 0.0 0.0 0.00 0.00 0.00 51 1013.8
20260504005433 62 342 0.0 0.0 0.00 0.00 0.00 50 1013.8
20260504004931 62 250 1.7 2.6 0.00 0.00 0.00 49 1013.5
20260504004428 62 302 0.0 0.0 0.00 0.00 0.00 49 1013.8
20260504003925 62 300 0.0 0.9 0.00 0.00 0.00 50 1013.5
20260504003421 63 304 0.0 0.0 0.00 0.00 0.00 50 1013.8
20260504002918 63 342 0.0 0.0 0.00 0.00 0.00 50 1013.8
20260504002415 64 305 0.0 0.0 0.00 0.00 0.00 48 1013.8
20260504001913 65 260 1.7 3.5 0.00 0.00 0.00 45 1013.8
20260504001410 65 282 0.0 0.0 0.00 0.00 0.00 45 1013.8
20260504000906 66 269 1.7 3.5 0.00 0.00 0.00 44 1014.2
20260504000404 66 213 2.6 3.5 0.00 0.00 0.00 43 1014.2
20260503235901 66 193 5.2 7.0 0.00 0.00 0.00 43 1014.2
20260503235359 66 266 0.9 0.9 0.00 0.00 0.00 43 1014.2
20260503234856 66 279 0.9 0.9 0.00 0.00 0.00 43 1014.2
20260503234354 67 264 2.6 4.3 0.00 0.00 0.00 42 1014.2
20260503233851 67 251 1.7 2.6 0.00 0.00 0.00 42 1014.5
20260503233347 67 257 4.3 6.1 0.00 0.00 0.00 41 1014.2
20260503232843 67 302 0.0 0.9 0.00 0.00 0.00 42 1014.2
20260503232341 68 266 1.7 3.5 0.00 0.00 0.00 42 1014.5
20260503231839 68 283 1.7 4.3 0.00 0.00 0.00 41 1014.2
20260503231336 68 250 1.7 3.5 0.00 0.00 0.00 41 1014.2
20260503230832 68 280 2.6 3.5 0.00 0.00 0.00 40 1014.2
20260503230329 68 282 7.8 9.6 0.00 0.00 0.00 40 1014.2
20260503225827 68 223 3.5 6.1 0.00 0.00 0.00 40 1014.5
20260503225322 68 269 5.2 7.0 0.00 0.00 0.00 39 1014.8
20260503224818 68 189 3.5 4.3 0.00 0.00 0.00 39 1014.8
20260503224316 68 264 2.6 3.5 0.00 0.00 0.00 40 1014.8
20260503223814 68 292 1.7 3.5 0.00 0.00 0.00 40 1015.2
20260503223311 69 230 4.3 6.1 0.00 0.00 0.00 39 1015.2
20260503222807 68 240 7.0 8.7 0.00 0.00 0.00 39 1015.2
20260503222305 69 265 2.6 4.3 0.00 0.00 0.00 39 1015.2
20260503221803 69 300 0.9 0.9 0.00 0.00 0.00 40 1015.2
20260503221301 69 250 3.5 4.3 0.00 0.00 0.00 40 1015.2
20260503220757 69 212 2.6 3.5 0.00 0.00 0.00 40 1015.2
20260503220254 68 262 3.5 4.3 0.00 0.00 0.00 40 1015.2
20260503215751 68 298 0.9 0.9 0.00 0.00 0.00 41 1015.5
20260503215248 68 214 4.3 6.1 0.00 0.00 0.00 39 1015.5
20260503214746 68 223 5.2 7.0 0.00 0.00 0.00 40 1015.8
20260503214242 68 227 2.6 3.5 0.00 0.00 0.00 39 1015.8
20260503213741 68 249 6.1 7.0 0.00 0.00 0.00 39 1015.8
20260503213238 69 251 6.1 8.7 0.00 0.00 0.00 38 1016.2
20260503212734 69 302 2.6 3.5 0.00 0.00 0.00 40 1016.2
20260503212232 69 257 2.6 3.5 0.00 0.00 0.00 38 1016.5
20260503211729 69 259 2.6 4.3 0.00 0.00 0.00 39 1016.2
20260503211225 69 226 3.5 6.1 0.00 0.00 0.00 40 1016.5
20260503210721 68 259 2.6 3.5 0.00 0.00 0.00 39 1016.5
20260503210219 68 272 6.1 7.0 0.00 0.00 0.00 40 1016.5
20260503205714 68 225 2.6 3.5 0.00 0.00 0.00 41 1016.9
20260503205210 68 206 3.5 4.3 0.00 0.00 0.00 39 1016.9
20260503204707 69 259 2.6 4.3 0.00 0.00 0.00 39 1016.9
20260503204205 68 287 2.6 3.5 0.00 0.00 0.00 42 1016.9
20260503203701 68 268 4.3 6.1 0.00 0.00 0.00 41 1017.2
20260503203159 68 227 2.6 3.5 0.00 0.00 0.00 41 1017.2
20260503202656 68 191 5.2 6.1 0.00 0.00 0.00 40 1017.5
20260503202154 67 303 2.6 4.3 0.00 0.00 0.00 41 1017.5
20260503201652 68 258 4.3 6.1 0.00 0.00 0.00 41 1017.5
20260503201149 67 309 0.9 0.9 0.00 0.00 0.00 43 1017.5
20260503200645 67 262 3.5 4.3 0.00 0.00 0.00 43 1017.5
20260503200141 67 243 1.7 3.5 0.00 0.00 0.00 45 1017.9
20260503195638 68 288 4.3 7.0 0.00 0.00 0.00 41 1017.9
20260503195135 66 242 4.3 6.1 0.00 0.00 0.00 41 1017.9
20260503194632 66 283 1.7 2.6 0.00 0.00 0.00 44 1017.9
20260503194128 66 259 2.6 3.5 0.00 0.00 0.00 43 1018.6
20260503193625 67 196 5.2 6.1 0.00 0.00 0.00 43 1018.6
20260503193120 67 206 1.7 2.6 0.00 0.00 0.00 44 1018.6
20260503192616 66 240 2.6 3.5 0.00 0.00 0.00 44 1018.6
20260503192112 66 186 6.1 7.0 0.00 0.00 0.00 43 1018.9
20260503191609 65 332 4.3 7.0 0.00 0.00 0.00 43 1018.9
20260503191106 66 200 2.6 3.5 0.00 0.00 0.00 45 1018.9
20260503190604 66 281 0.0 0.9 0.00 0.00 0.00 45 1018.9
20260503190100 66 241 2.6 3.5 0.00 0.00 0.00 46 1019.2
20260503185556 65 239 2.6 4.3 0.00 0.00 0.00 47 1019.2
20260503185056 65 273 2.6 3.5 0.00 0.00 0.00 47 1019.6
20260503184552 66 303 2.6 4.3 0.00 0.00 0.00 45 1019.2
20260503184049 66 301 1.7 2.6 0.00 0.00 0.00 45 1019.6
20260503183545 65 298 1.7 2.6 0.00 0.00 0.00 45 1019.6
20260503183043 65 276 2.6 3.5 0.00 0.00 0.00 45 1019.6
20260503182541 65 230 2.6 3.5 0.00 0.00 0.00 45 1019.9
20260503182039 65 285 1.7 2.6 0.00 0.00 0.00 44 1019.9
20260503181535 65 203 1.7 6.1 0.00 0.00 0.00 46 1019.9
20260503181032 65 304 1.7 2.6 0.00 0.00 0.00 46 1019.9
20260503180529 65 171 2.6 3.5 0.00 0.00 0.00 42 1019.9
20260503180026 64 222 1.7 3.5 0.00 0.00 0.00 45 1020.3
20260503175524 64 309 0.9 0.9 0.00 0.00 0.00 53 1020.3
20260503175020 63 226 3.5 4.3 0.00 0.00 0.00 44 1020.3
20260503174518 64 195 1.7 2.6 0.00 0.00 0.00 44 1020.3
20260503174014 64 320 2.6 4.3 0.00 0.00 0.00 47 1020.3
20260503173509 63 278 0.9 0.9 0.00 0.00 0.00 46 1020.7
20260503173006 63 174 1.7 3.5 0.00 0.00 0.00 47 1020.7
20260503172504 63 289 1.7 2.6 0.00 0.00 0.00 45 1020.7
20260503172001 63 242 2.6 4.3 0.00 0.00 0.00 49 1020.7
20260503171457 62 243 1.7 2.6 0.00 0.00 0.00 47 1020.7
20260503170954 63 253 3.5 4.3 0.00 0.00 0.00 46 1020.7
20260503170450 64 256 2.6 4.3 0.00 0.00 0.00 45 1020.7
20260503150843 57 224 2.6 2.6 0.00 0.00 0.00 58 1022.0
20260503150339 57 258 4.3 6.1 0.00 0.00 0.00 58 1022.0
20260503140303 55 292 0.0 0.9 0.00 0.00 0.00 73 1022.0
20260503131233 51 317 0.0 0.0 0.00 0.00 0.00 99 1022.0
20260503130730 51 337 0.0 0.0 0.00 0.00 0.00 99 1022.0
20260503130227 49 326 0.0 0.0 0.00 0.00 0.00 99 1022.0
20260503120153 37 329 0.0 0.0 0.00 0.00 0.00 99 1021.7
20260503110621 35 337 0.0 0.0 0.00 0.00 0.00 99 1021.4
20260503110118 35 337 0.0 0.0 0.00 0.00 0.00 99 1021.4